This demonstration page uses our WeatherBlox Daily Observations layout. Learn more.

Left ArrowRight Arrow

Hourly Observations for September 24, 2022

Temp ( °F °C ) Dew Point ( °F °C ) Humidity (%) Winds ( mph kmh ) Pressure ( in mb ) Visibility ( mi km ) Precip ( " mm )
12:56 am 00:56 Clear 57 13.9 52 11.1 83 83 WSW 5 7 29.96 1015 10 16 0.00 0.00
1:56 am 01:56 Clear 56 13.3 46 7.8 69 69 NW 9 15 29.96 1015 10 16 0.00 0.00
2:56 am 02:56 Clear 55 12.8 45 7.2 69 69 W 7 11 29.97 1015 10 16 0.00 0.00
3:56 am 03:56 Clear 52 11.1 47 8.3 83 83 SW 7 11 29.98 1015 10 16 0.00 0.00
4:56 am 04:56 Clear 53 11.7 46 7.8 77 77 W 6 9 29.98 1015 10 16 0.00 0.00
5:56 am 05:56 Clear 54 12.2 45 7.2 71 71 WSW 7 11 29.98 1015 10 16 0.00 0.00
6:56 am 06:56 Clear 53 11.7 45 7.2 74 74 WSW 7 11 29.99 1016 10 16 0.00 0.00
7:56 am 07:56 Sunny 49 9.4 44 6.7 83 83 WNW 5 7 30.01 1016 10 16 0.00 0.00
8:56 am 08:56 Sunny 58 14.4 47 8.3 67 67 WSW 6 9 30.01 1016 10 16 0.00 0.00
9:56 am 09:56 Sunny 68 20 49 9.4 50 50 WSW 7 11 30.01 1016 10 16 0.00 0.00
10:56 am 10:56 Sunny 73 22.8 50 10 44 44 SW 7 11 30.01 1016 10 16 0.00 0.00
11:56 am 11:56 Sunny 79 26.1 48 8.9 34 34 VRB 3 6 30.00 1016 10 16 0.00 0.00
12:56 pm 12:56 Sunny 81 27.2 45 7.2 28 28 WSW 6 9 29.98 1015 10 16 0.00 0.00
1:56 pm 13:56 Sunny 84 28.9 46 7.8 27 27 WNW 7 11 29.96 1015 10 16 0.00 0.00
2:56 pm 14:56 Sunny 85 29.4 43 6.1 23 23 WNW 8 13 29.94 1014 10 16 0.00 0.00
3:56 pm 15:56 Sunny 86 30 43 6.1 22 22 W 10 17 29.93 1013 10 16 0.00 0.00
4:56 pm 16:56 Sunny 86 30 42 5.6 21 21 W 12 19 29.91 1013 10 16 0.00 0.00
5:56 pm 17:56 Sunny 84 28.9 44 6.7 25 25 W 9 15 29.91 1013 10 16 0.00 0.00
6:56 pm 18:56 Mostly Sunny 80 26.7 48 8.9 33 33 WNW 6 9 29.93 1013 10 16 0.00 0.00
7:56 pm 19:56 Mostly Clear 72 22.2 44 6.7 37 37 NNE 14 22 29.97 1015 10 16 0.00 0.00
8:56 pm 20:56 Clear 65 18.3 45 7.2 48 48 N 9 15 30.02 1017 10 16 0.00 0.00
9:56 pm 21:56 Clear 62 16.7 44 6.7 52 52 N 8 13 30.05 1018 10 16 0.00 0.00
10:56 pm 22:56 Clear 62 16.7 44 6.7 52 52 Calm 30.05 1018 10 16 0.00 0.00
11:56 pm 23:56 Clear 57 13.9 45 7.2 64 64 WNW 7 11 30.07 1018 10 16 0.00 0.00

Powered by AerisWeather